Home   Weather   1°17'N, 103°50'E   Past weeks
Flag for Singapore

Past Weather in 1°17'N, 103°50'E, Singapore — Yesterday and Last 2 Weeks

Now
93 °F

Partly sunny.


Feels Like: 103 °F
Forecast: 89 / 77 °F
Wind: 8 mph from Southeast

Location: Singapore / Paya Lebar

Current Time: Oct 19, 2019 at 3:09:52 pm

Latest Report: Oct 19, 2019 at 2:00 pm


Visibility: N/A

Pressure: 29.77 "Hg

Humidity: 53%

Dew Point: 73 °F

Location of 1°17'N, 103°50'ELocation

Past Weather in 1°17'N, 103°50'E — Graph

°F

1°17'N, 103°50'E Temperature Yesterday

Maximum temperature yesterday: 90 °F (at 11:00 am)
Minimum temperature yesterday: 81 °F (at 1:00 am)
Average temperature yesterday: 84 °F

High & Low Weather Summary for the Past Weeks

 TemperatureHumidityPressure
High95 °F (Oct 11, 2:00 pm)94% (Oct 7, 2:35 pm)29.89 "Hg (Oct 7, 2:35 pm)
Low77 °F (Oct 7, 10:13 am)39% (Oct 14, 3:00 pm)29.71 "Hg (Oct 16, 4:00 pm)
Average85 °F75%29.81 "Hg
* Reported Oct 4 1:00 pm — Oct 19 1:00 pm, 1°17'N, 103°50'E. Weather by CustomWeather, © 2019

Note: Actual official high and low records may vary slightly from our data, if they occured in-between our weather recording intervals... More about our weather records

Advertising

1°17'N, 103°50'E Weather History for the Previous 24 Hours

Scroll right to see more
 ConditionsComfort  
Time TempWeatherWind HumidityBarometerVisibility
1:00 pm
Sat, Oct 19
91 °FThunderstorms. Partly sunny.9 mph52%29.80 "HgN/A
12:00 pm91 °FPartly sunny.8 mph52%29.86 "HgN/A
11:00 am91 °FPartly sunny.6 mph59%29.86 "HgN/A
10:00 am88 °FPartly sunny.1 mph66%29.86 "Hg5 mi
9:00 am82 °FPartly sunny.No wind79%29.86 "Hg4 mi
8:00 am82 °FPartly sunny.2 mph89%29.83 "Hg4 mi
7:00 am84 °FPartly sunny.No wind84%29.83 "Hg4 mi
6:00 am84 °FPassing clouds.2 mph84%29.80 "Hg5 mi
5:00 am82 °FPassing clouds.2 mph84%29.77 "HgN/A
4:00 am81 °FPassing clouds.No wind84%29.77 "HgN/A
3:00 am82 °FPassing clouds.1 mph79%29.77 "HgN/A
2:00 am84 °FPartly cloudy.1 mph79%29.80 "HgN/A
1:00 am84 °FPassing clouds.1 mph79%29.80 "HgN/A
12:00 am82 °FPassing clouds.2 mph74%29.83 "HgN/A
11:00 pm
Fri, Oct 18
82 °FPassing clouds.3 mph79%29.86 "HgN/A
10:00 pm86 °FPassing clouds.5 mph75%29.86 "HgN/A
9:00 pm86 °FPassing clouds.No wind75%29.83 "HgN/A
8:00 pm84 °FPassing clouds.5 mph79%29.80 "HgN/A
7:00 pm86 °FPassing clouds.5 mph75%29.77 "HgN/A
6:00 pm88 °FPartly sunny.7 mph66%29.74 "HgN/A
5:00 pm86 °FPartly sunny.6 mph66%29.74 "HgN/A
4:00 pm86 °FPartly sunny.8 mph70%29.74 "HgN/A
3:00 pm86 °FScattered clouds.12 mph66%29.77 "HgN/A
Weather by CustomWeather, © 2019

See weather overview